STARLINK-35118

Last updated on Mon Dec 15 2025 00:02:12 GMT+0000 (Coordinated Universal Time)

1 66858U 25281L 25348.25003472 -.01227023 00000+0 -50773-2 0 9998 2 66858 43.0007 112.9736 0001545 269.3150 277.5464 15.87314768 1432
UTC large
Height (km)
Speed (km/s)
/
Latitude / Longitude
Inclination (degrees)
Orbital Period (minutes)
Azimuth
Elevation
Range (km)
Doppler Factor

Next 0 passes for location: London (51.5072 / 0.1276)

Sorry there are no passes over London.